Airport Information

KSKA - Fairchild AFB

KSKA 251158Z 08005KT 10SM CLR 02/02 A3016 RMK AO2A SLP231 70006 T00170017 10042 20015 58005 $


  • General Information

  • Coordinates: N 47°36'54"/ W 117°39'20"
  • Location: N/A
  • Surveyed Elevation: 2461 MSL

Operations

Flow Name Active Runways Conditions

Green background denotes normal operations.


Common Frequencies

Callsign Frequency Position Name

More at the Document Center


Charts